STARLINK-30036, 56692

Orbit data source: Space-Track

STARLINK-30036, 56692 is a payload satellite owned by SpaceX/Seattle (US) in LEO that was launched on Fri, 19 May 2023 UTC via an FALCON 9 launch vehicle from the Air Force Eastern Test Range (AFETR). Payload-class satellites include a variety of spacecraft equipped with specific instruments for various scientific and technological missions. These include communications satellites like Starlink; space stations such as the ISS; scientific satellites like the Hubble; Earth observation satellites from companies like Planet Labs, Umbra, and HawkEye 360; GPS; miniature CubeSats for education and research; and military/defense satellites.

Loading next visibility...
Identifier
56692, 2023-067E
Orbit
LEO
Country
Flag of USUS
Related business
Manufacturer
SpaceX/Seattle
Mission
Operational Commercial Communications
Bus & Motor
STARLINK V2M, Unknown motor
Mass
730 kg wet, ~700 kg dry
Launch date (UTC)
2023-05-19 (3 years ago)
Launch vehicle
FALCON 9
Launch site
Air Force Eastern Test Range (AFETR)
Object type
Payload
Rocket body
Debris
Shape & HBR
Box + 2 Pan, 17.7 m
Radar Cross Section
33.884 m², Large (>1 m²)

Expand to show TLE details & history
Last TLE update: 2 days ago

TLE from 2 days ago
0 STARLINK-30036
1 56692U 23067E   26171.10420646  .00007964  00000-0  29894-3 0  9997
2 56692  43.0037  62.8449 0001655 252.7863 107.2808 15.27542390170114
Epoch: 2026-06-20T02:30Z
TLE epoch observation values (Epoch: 2026-06-20T02:30:03.438Z)
Latitude
0.00002°
Longitude
117.00698°
Altitude
483.275 km
Speed
7.625 km/s
True Right ascension
04h 11m 22s
True Declination
0° 00' 00"
Sunlit
Object was in daylight at epoch
Visualization orbit readout
Latitude
Unknown
Longitude
Unknown
Altitude
Unknown
Speed
Unknown
Apparent Right ascension
Unknown
Apparent Declination
Unknown
Sunlit
N/A
Visualization observer readout
Local Sidereal Time
21:32:46
Azimuth
Unknown
Elevation
Unknown
Doppler factor
Unknown
Orbital elements
Apogee altitude
486.242 km
Perigee altitude
483.97 km
Semi-major axis
6,863.243 km
Eccentricity
0.00017
Inclination
43.0037°
RAAN
62.8449°
Arg. of periapsis
252.7863°
True anomaly
107.29891°
Mean anomaly
107.2808°
Eccentric anomaly
107.28985°
Mean motion
3.81724 °/min
Orbital period
94.31 mins
BSTAR
0.00029894
Loading maneuver chart data...
Computing Atmospheric mass density...
Loading historical data...
Loading historical data...
Loading historical data...
Loading historical data...
Loading historical data...
Loading historical data...
Loading historical data...

Documentation

Showing up to 5 results
|